Weather observations for the past three days for
King Cove
Imperial (Metric)
Date Time (akdt) Wind (mph) Vis. (mi.) Weather Sky Cond. Temperature (ºF) Relative Humidity Wind Chill (°F) Heat Index (°F) Pressure Precipitation (in)
Air Dwpt 6 hour altimeter (in) sea level (mb) 1 hr 3 hr 6 hr
Max. Min.
09 14:56 N 15 G 21 10.00 Partly Cloudy SCT047 41 27 57% 34 29.52 999.7
09 13:56 Calm 10.00 Fair CLR 41 27 57% 29.52 999.7
09 12:56 SW 13 10.00 Fair CLR 41 23 49% 34 29.53 1000.0
09 11:56 Vrbl 5 10.00 Fair CLR 39 23 53% 36 29.53 1000.1
09 10:56 Vrbl 7 10.00 Fair CLR 37.9 25 60% 33 29.53 1000.2
09 09:56 NW 14 G 21 10.00 Fair CLR 36 25 36 28.9 64% 28 29.53 1000.2
09 08:56 W 13 G 21 10.00 Light Rain FEW010 35.1 26.1 70% 27 29.54 1000.4
09 07:56 W 16 G 24 10.00 Fair CLR 32 25 75% 22 29.54 1000.5
09 06:56 W 15 G 30 10.00 Fair CLR 30.9 25 79% 21 29.54 1000.4
09 05:56 Vrbl 3 10.00 Fair CLR 30.9 21.9 69% 29.55 1000.8
09 04:56 SW 6 10.00 Fair CLR 30.9 23 72% 26 29.57 1001.3
09 03:56 SW 9 10.00 Fair CLR 30 23 33.1 28.9 75% 22 29.57 1001.5
09 02:56 SW 14 G 22 10.00 Fair CLR 28.9 24.1 82% 19 29.59 1002.2
09 01:56 SW 18 G 28 10.00 Fair CLR 30 25 82% 19 29.6 1002.6
09 00:56 SW 16 G 23 10.00 Fair CLR 30.9 27 85% 21 29.62 1003.1
08 23:56 W 14 G 24 10.00 Fair CLR 30.9 28 89% 21 29.63 1003.5
08 22:56 W 17 G 22 10.00 Fair CLR 30.9 28.9 92% 20 29.64 1003.8
08 21:56 SW 17 10.00 Fair CLR 33.1 28.9 42.1 33.1 85% 23 29.64 1003.8
08 20:56 SW 10 10.00 Fair CLR 37 30 76% 30 29.64 1003.9
08 19:56 SW 10 10.00 Fair CLR 37.9 30 73% 32 29.65 1004.1
08 18:56 W 10 10.00 Fair CLR 39.9 30 68% 34 29.66 1004.4
08 17:56 W 13 G 17 10.00 Fair CLR 41 30.9 67% 34 29.67 1004.7
08 16:56 W 14 G 21 10.00 Fair CLR 41 30.9 67% 34 29.68 1005.1
08 15:56 W 9 G 18 10.00 A Few Clouds FEW033 42.1 30.9 42.1 30.9 65% 37 29.69 1005.5
08 14:56 SW 13 10.00 Fair CLR 39.9 30 68% 33 29.71 1006.1
08 12:56 W 10 10.00 A Few Clouds FEW024 37 28 70% 30 29.74 1007.1
08 11:56 W 12 10.00 Partly Cloudy SCT017 35.1 28 76% 28 29.75 1007.5
08 10:56 Vrbl 5 10.00 Mostly Cloudy BKN013 33.1 27 78% 29 29.77 1008.2
08 09:56 SW 6 10.00 Overcast OVC011 30.9 28 30.9 28 89% 26 29.78 1008.6
08 08:56 W 5 10.00 Overcast OVC011 30 28 92% 26 29.79 1009.0
08 07:56 W 7 10.00 Overcast OVC009 28.9 28 96% 23 29.79 1009.0
08 06:56 SW 10 10.00 Overcast OVC007 28 27 96% 19 29.8 1009.4
08 05:56 W 10 10.00 Overcast OVC007 28.9 28 96% 20 29.81 1009.5
08 04:56 SW 10 8.00 Overcast OVC003 28.9 28 96% 20 29.82 1009.9
08 03:56 W 10 6.00 Fog/Mist OVC003 28.9 28 33.1 28.9 96% 20 29.83 1010.3
08 02:56 W 10 1.50 Fog/Mist OVC003 30 28 92% 22 29.85 1011.0
08 01:56 W 12 9.00 Overcast OVC003 30 28.9 96% 21 29.86 1011.4
08 00:56 W 10 10.00 Overcast OVC005 30.9 30 96% 23 29.87 1011.5
07 23:56 W 9 10.00 Overcast OVC005 32 30 92% 25 29.88 1011.8
07 22:56 W 12 10.00 Overcast BKN007 OVC019 33.1 30.9 92% 25 29.88 1012.1
07 21:56 W 13 10.00 Fair CLR 33.1 30.9 43 33.1 92% 25 29.88 1011.8
07 20:56 W 13 10.00 Mostly Cloudy BKN029 37.9 32 79% 31 29.88 1011.8
07 19:56 NW 10 10.00 Partly Cloudy SCT031 42.1 33.1 71% 37 29.88 1011.8
07 18:56 E 7 10.00 Partly Cloudy SCT027 41 30.9 67% 37 29.88 1012.1
07 16:56 E 9 10.00 Mostly Cloudy BKN033 41 28.9 62% 36 29.91 1013.1
07 14:56 E 10 10.00 Fair CLR 41 30 65% 35 29.94 1014.1
07 13:56 E 9 10.00 Fair CLR 41 30 65% 36 29.96 1014.6
07 12:56 E 10 10.00 Fair CLR 39 30 70% 33 29.97 1014.9
07 11:56 SE 9 10.00 Fair CLR 37.9 28.9 70% 32 29.98 1015.2
07 10:56 NE 6 10.00 Mostly Cloudy BKN020 36 27 70% 32 29.99 1015.6
07 09:56 Calm 10.00 Mostly Cloudy BKN020 35.1 27 35.1 27 72% 30 1016.1
07 08:56 NE 7 10.00 Mostly Cloudy BKN018 34 28 79% 29 30.01 1016.3
07 07:56 Calm 10.00 Fair CLR 28 26.1 92% 30.01 1016.3
07 06:56 Calm 10.00 Partly Cloudy SCT018 28 26.1 92% 30.02 1016.7
07 05:56 E 6 10.00 Fair CLR 28 26.1 92% 22 30.02 1016.8
07 04:56 NE 7 10.00 Fair CLR 28.9 27 92% 23 30.03 1016.9
07 03:56 NE 7 10.00 Fair CLR 28.9 27 33.1 28 92% 23 30.04 1017.2
07 02:56 NE 5 10.00 Fair CLR 28 26.1 92% 24 30.05 1017.9
07 01:56 E 10 10.00 Fair CLR 28.9 27 92% 20 30.06 1018.1
07 00:56 NE 8 10.00 Fair CLR 30 27 88% 23 30.07 1018.4
06 23:56 NE 8 10.00 Fair CLR 30 27 88% 23 30.07 1018.5
06 22:56 NE 9 10.00 A Few Clouds FEW014 30.9 28 89% 24 30.07 1018.5
06 21:56 NE 7 10.00 Fair CLR 33.1 27 37.9 33.1 78% 28 30.07 1018.4
06 20:56 E 10 10.00 Fair CLR 35.1 28 76% 28 30.07 1018.4
06 19:56 Calm 10.00 Fair CLR 36 28.9 76% 30.07 1018.4
06 18:56 Calm 10.00 Fair CLR 36 28 73% 30.07 1018.3
06 17:56 E 12 10.00 Fair CLR 37 28 70% 30 30.07 1018.5
06 16:56 E 10 10.00 Fair CLR 37.9 28 68% 32 30.08 1018.9
06 15:56 E 9 10.00 Fair CLR 37.9 28 39 30.9 68% 32 30.09 1019.3
Date Time (akdt) Wind (mph) Vis. (mi.) Weather Sky Cond. Air Dwpt Max. Min. Relative Humidity Wind Chill (°F) Heat Index (°F) altimeter (in) sea level (mb) 1 hr 3 hr 6 hr
6 hour
Temperature (ºF) Pressure Precipitation (in)